Location: Haliburton Scout Reserve
(45.0900°N, 78.3200°W)
Time: 01:25:53
(UTC-04:00)

DIWATA 2B (PO-101) - Pass Details

Date: 19 May 2022
Orbit: 585 x 597 km, 98.0° (Epoch: 27 June)

Event Time Altitude Azimuth Distance (km) Brightness Sun altitude
Exits shadow 02:53:20 44° 148° (SSE) 810 ? -21.0°
Maximum altitude 02:54:32 75° 76° (ENE) 613 ? -20.9°
Drops below altitude 10° 02:58:42 10° 350° (N) 1,921 ? -20.5°
Sets 03:00:52 0° 349° (N) 2,828 ? -20.4°
